TimeEST,TemperatureF,Dew PointF,Humidity,Sea Level PressureIn,VisibilityMPH,Wind Direction,Wind SpeedMPH,Gust SpeedMPH,PrecipitationIn,Events,Conditions,WindDirDegrees,DateUTC
12:53 AM,50.0,39.0,66,29.88,10.0,WNW,8.1,-,N/A,,Clear,290,2013-11-18 05:53:00
1:53 AM,48.0,37.9,68,29.90,10.0,WNW,9.2,19.6,N/A,,Clear,300,2013-11-18 06:53:00
2:53 AM,46.0,36.0,68,29.94,10.0,WNW,6.9,-,N/A,,Clear,290,2013-11-18 07:53:00
3:53 AM,43.0,36.0,76,29.95,10.0,West,5.8,-,N/A,,Clear,270,2013-11-18 08:53:00
4:53 AM,44.1,37.0,76,29.96,10.0,West,8.1,-,N/A,,Clear,280,2013-11-18 09:53:00
5:53 AM,44.1,37.0,76,29.96,10.0,WNW,6.9,-,N/A,,Clear,290,2013-11-18 10:53:00
6:53 AM,43.0,36.0,76,29.98,10.0,West,8.1,-,N/A,,Clear,270,2013-11-18 11:53:00
7:53 AM,42.1,36.0,79,30.01,10.0,West,4.6,-,N/A,,Clear,270,2013-11-18 12:53:00
8:53 AM,45.0,36.0,71,30.03,10.0,West,8.1,-,N/A,,Clear,270,2013-11-18 13:53:00
9:53 AM,46.9,34.0,61,30.04,10.0,NW,11.5,-,N/A,,Clear,310,2013-11-18 14:53:00
10:53 AM,48.9,34.0,56,30.06,10.0,WNW,10.4,23.0,N/A,,Clear,290,2013-11-18 15:53:00
11:53 AM,51.1,34.0,52,30.07,10.0,WNW,13.8,21.9,N/A,,Partly Cloudy,290,2013-11-18 16:53:00
12:53 PM,52.0,33.1,49,30.07,10.0,NW,12.7,21.9,N/A,,Scattered Clouds,310,2013-11-18 17:53:00
1:53 PM,52.0,28.9,41,30.08,10.0,WNW,21.9,28.8,N/A,,Clear,290,2013-11-18 18:53:00
2:53 PM,52.0,27.0,38,30.09,10.0,NW,10.4,25.3,N/A,,Clear,310,2013-11-18 19:53:00
3:53 PM,51.1,27.0,39,30.11,10.0,NW,11.5,20.7,N/A,,Clear,310,2013-11-18 20:53:00
4:53 PM,48.9,27.0,43,30.14,10.0,West,8.1,-,N/A,,Clear,280,2013-11-18 21:53:00
5:53 PM,46.9,25.0,42,30.16,10.0,WNW,11.5,23.0,N/A,,Clear,300,2013-11-18 22:53:00
6:53 PM,45.0,26.1,48,30.18,10.0,NW,9.2,16.1,N/A,,Clear,310,2013-11-18 23:53:00
7:53 PM,43.0,27.0,53,30.18,10.0,WNW,5.8,-,N/A,,Clear,300,2013-11-19 00:53:00
8:53 PM,41.0,27.0,57,30.20,10.0,WNW,6.9,-,N/A,,Clear,300,2013-11-19 01:53:00
9:53 PM,39.9,26.1,58,30.22,10.0,NW,4.6,-,N/A,,Clear,310,2013-11-19 02:53:00
10:53 PM,37.0,25.0,62,30.24,10.0,WNW,3.5,-,N/A,,Clear,300,2013-11-19 03:53:00
11:53 PM,36.0,25.0,64,30.25,10.0,NW,3.5,-,N/A,,Clear,320,2013-11-19 04:53:00